Location: West Wratting
(52.1333°N, 0.3500°E)
Time: 22:47:08
(UTC+00:00)

Daily predictions for brighter satellites

Satellite Brightness Start Highest point End
(mag) Time Altitude Azimuth Time Altitude Azimuth Time Altitude Azimuth
Radarsat Rocket 4.3 17:37:16 10° SE 17:42:56 49° ENE 17:49:10 10° NNW
Meteor 1-11 4.3 17:38:26 10° S 17:44:02 67° E 17:49:45 10° NNE
Cosmos 2016 Rocket 4.2 17:40:10 10° NNW 17:46:25 81° W 17:52:44 10° S
CZ-2D R/B 2.8 17:43:40 10° S 17:46:43 78° WSW 17:49:47 10° NNW
Cosmos 2297 Rocket 2.8 17:41:51 10° S 17:46:58 37° ESE 17:52:07 10° NE
SAR-Lupe-5 4.2 17:50:40 10° NNE 17:53:08 54° ESE 17:55:31 10° S
NOSS 0 Rocket 4.3 17:47:46 10° NW 17:54:01 72° WSW 18:00:13 10° SSE
Cosmos 1814 Rocket 4.2 17:51:16 10° SSW 17:56:33 78° WNW 18:01:47 10° NNE
SPOT 5 4.4 17:53:35 10° E 17:56:48 17° NE 18:00:05 10° NNE
Cosmos 1867 4.0 17:52:29 10° SW 17:57:53 65° NW 18:03:21 10° NE
Cosmos 158 Rocket 4.0 17:53:16 10° SSW 17:58:07 78° WNW 18:03:02 10° NNE
SeaSat 1 2.6 17:53:32 10° SSE 17:58:26 80° WSW 18:03:23 10° NNW
SJ-6B 3.9 17:56:56 10° ESE 17:59:26 19° ENE 18:01:57 10° NNE
Cosmos 2233 Rocket 4.2 17:53:57 10° N 18:00:16 85° W 18:06:35 10° S
Meteor 2-1 Rocket 4.4 17:56:08 10° NNW 18:01:59 90° W 18:07:54 10° S
Cosmos 1125 Rocket 3.7 17:57:25 10° NNW 18:02:38 78° WSW 18:07:48 10° SSE
IRS-P3 4.3 17:57:40 10° SSE 18:02:59 81° WSW 18:08:22 10° NNW
Cosmos 2228 3.8 17:59:23 10° N 18:03:03 28° ENE 18:06:41 10° SE
Cosmos 1356 Rocket 4.1 17:59:44 10° NNW 18:03:36 55° W 18:07:29 10° S
Cosmos 2285 Rocket 4.1 17:57:15 10° NNW 18:03:45 89° ENE 18:10:09 10° SSE
PSLV R/B 3.7 18:00:18 10° SE 18:04:13 44° ENE 18:08:07 10° N
COSMO-SKYMED 1 3.0 18:00:34 10° NNE 18:04:22 35° E 18:08:09 10° SSE
NOSS 3-3 (C) 3.8 18:00:20 10° SSW 18:05:35 69° SE 18:11:56 10° NE
Meteor 1-31 Rocket 4.3 18:06:27 13° ENE 18:07:08 13° ENE 18:08:50 10° NNE
Cosmos 2151 Rocket 4.3 18:03:04 10° NNW 18:07:31 60° W 18:11:56 10° S
Cosmos 1570 Rocket 4.4 18:02:51 10° S 18:07:45 40° ESE 18:12:39 10° NE
CZ-2D R/B 3.3 18:05:07 10° SSE 18:09:01 65° ENE 18:13:02 10° N
Cosmos 1455 Rocket 3.1 18:06:40 10° N 18:10:55 54° ENE 18:15:07 10° SSE
YAOGAN 1 2.5 18:08:56 10° SSE 18:13:11 83° ENE 18:17:29 10° NNW
Cosmos 1607 4.1 18:07:34 10° SW 18:13:43 78° NW 18:19:58 10° NE
Cosmos 2263 Rocket 3.6 18:10:27 10° SE 18:14:01 17° E 18:16:42 13° ENE
Cosmos 1980 3.9 18:08:34 10° NNW 18:14:16 79° WSW 18:19:54 10° SSE
Cosmos 1975 Rocket 3.9 18:11:44 10° SE 18:15:22 27° E 18:19:00 10° NNE
USA 234 4.2 18:11:14 10° SSE 18:17:32 49° SW 18:23:53 10° WNW
Cosmos 2237 Rocket 2.4 18:13:44 10° NNW 18:19:26 78° WSW 18:25:07 10° SSE
COSMOS 2428 4.4 18:14:26 10° NW 18:19:40 37° WSW 18:24:52 10° S
USA 290 4.2 18:17:21 10° WSW 18:20:10 28° NW 18:23:01 10° N
DNEPR-1 R/B 3.9 18:18:55 10° NW 18:23:40 75° NE 18:29:20 10° SE
Cosmos 773 Rocket 4.4 18:19:14 10° S 18:24:10 43° ESE 18:29:11 10° NE
SJ-7 4.0 18:20:31 10° SSE 18:24:11 78° ENE 18:27:52 10° NNW
Spot 4 Rocket 4.0 18:19:50 10° SSE 18:24:57 85° ENE 18:30:06 10° NNW
NOAA 6 4.0 18:20:55 10° SSE 18:26:03 73° ENE 18:31:13 10° NNW
Okean 1 Rocket 3.8 18:22:58 10° NNW 18:27:17 56° W 18:31:33 10° S
Meteor 1-27 4.2 18:23:17 10° N 18:29:05 79° ENE 18:34:55 10° SSE
ARIANE 5 R/B 4.3 18:25:04 10° SSW 18:29:44 36° W 18:34:23 10° NNW
Cosmos 2208 Rocket 4.3 18:25:09 10° S 18:30:07 45° ESE 18:35:11 10° NE
Terra 3.5 18:31:23 14° NE 18:31:27 14° NE 18:33:53 10° NNE
NOSS 3-3 (A) 3.9 18:26:37 10° SW 18:31:57 79° NW 18:38:30 10° NE
CRYOSAT 2 4.4 18:28:16 10° NNE 18:33:05 54° E 18:37:51 10° SSE
Meteor 2-17 Rocket 4.5 18:30:53 10° SSE 18:36:45 55° E 18:42:38 10° NNE
Cosmos 44 Rocket 3.6 18:34:08 10° SSW 18:38:54 50° ESE 18:42:35 17° NE
Cosmos 1346 Rocket 3.4 18:36:09 10° SSE 18:39:17 28° E 18:40:09 25° ENE
Cosmos 2221 Rocket 4.1 18:36:27 10° SSW 18:40:54 65° WNW 18:45:24 10° N
Cosmos 1464 Rocket 4.0 18:35:26 10° N 18:41:48 66° ENE 18:48:03 10° SSE
Cosmos 1025 Rocket 4.0 18:37:46 10° SSW 18:41:58 49° WNW 18:46:13 10° N
SL-16 R/B 4.4 18:37:39 10° N 18:42:47 28° NW 18:47:56 10° WSW
Cosmos 1602 3.1 18:40:13 10° SSE 18:42:52 42° E 18:43:15 39° ENE
CZ-4C R/B 2.4 18:38:41 10° WSW 18:43:09 58° NW 18:48:41 11° NE
Cosmos 836 Rocket 4.4 18:40:25 10° SSW 18:45:40 74° ESE 18:50:59 10° NNE
SL-16 R/B 2.2 18:40:28 10° NNW 18:46:05 59° NE 18:50:49 15° SE
Cosmos 2227 Rocket 2.5 18:40:59 10° S 18:46:18 45° ESE 18:51:30 11° NE
NOSS 3-4 (A) 4.2 18:43:16 10° NW 18:49:52 67° SW 18:57:39 10° SSE
NOSS 3-4 (C) 4.2 18:43:33 10° NW 18:50:10 68° SW 18:57:58 10° SSE
Aureole 3 Rocket 4.1 18:48:48 10° NNW 18:52:28 38° W 18:55:29 10° SSW
Cosmos 2150 Rocket 4.1 18:48:20 10° NNW 18:53:32 79° WSW 18:58:38 10° SSE
ATLAS CENTAUR R/B 2.7 18:53:41 10° NNW 18:54:54 14° NNE 18:54:54 14° NNE
Cosmos 2298 Rocket 4.1 18:52:15 10° NNW 18:57:34 78° WSW 19:02:51 10° SSE
Lacrosse 5 rocket 1.9 18:56:52 10° WNW 19:00:12 37° N 19:01:16 29° NE
CZ-4 R/B 2.1 19:02:50 30° NE 19:02:50 30° NE 19:05:30 10° N
Resurs 01 Rocket 2.0 19:00:48 10° S 19:05:09 66° WSW 19:09:35 10° NNW
Cosmos 1782 2.4 19:02:22 10° N 19:05:59 88° E 19:09:32 10° S
ATLAS 2AS CENTAUR R/B 3.9 19:01:40 10° WNW 19:07:42 31° N 19:11:46 18° NE
CZ-4B R/B 3.7 19:11:59 34° ENE 19:12:37 36° ENE 19:17:25 10° N
CSL-04 Debris 4.1 19:12:12 21° SE 19:15:50 61° ENE 19:21:11 10° N
CZ-4B DEB 4.3 19:14:54 31° SE 19:17:14 53° ENE 19:22:32 10° N
ERS-1 Rocket 3.6 19:20:01 36° ENE 19:20:01 36° ENE 19:24:20 10° N
ARIANE 6 FM1 Upper Stage 2.5 19:16:50 10° NW 19:20:48 82° SW 19:21:31 58° SE
CSL-04 Rocket 3.5 19:17:14 19° SSE 19:21:00 70° ENE 19:26:16 10° NNW
USA 267 3.4 19:17:49 26° ENE 19:21:44 70° NNW 19:28:15 10° W
RESURS DK-1 3.3 19:21:53 10° NNW 19:24:45 32° NNE 19:24:45 32° NNE
Cosmos 2297 Rocket 3.0 19:25:23 10° SW 19:30:53 50° NW 19:36:24 10° NNE
Cosmos 2058 4.2 19:28:10 10° S 19:29:54 25° S 19:29:54 25° S
SJ-6B 3.8 19:29:20 10° S 19:32:35 39° W 19:35:51 10° NNW
Cosmos 1943 3.3 19:27:13 10° NNW 19:32:50 54° NE 19:33:42 49° E
Tiangong 0.7 19:32:09 10° SSW 19:32:34 11° SSW 19:32:34 11° SSW
SPOT 5 2.8 19:31:23 29° SSE 19:33:57 85° ENE 19:39:07 10° NNW
Tsikada Rocket 3.9 19:30:06 10° S 19:36:06 58° E 19:42:10 10° NNE
Okean O Rocket 3.6 19:39:03 16° NNE 19:39:03 16° NNE 19:40:17 10° N
COSMO-SKYMED 1 4.4 19:36:00 10° N 19:39:34 29° WNW 19:43:08 10° SW
MOS 1 4.3 19:38:44 52° ESE 19:39:41 59° ENE 19:45:16 10° N
Meteor 1-31 Rocket 3.2 19:40:27 51° NW 19:40:27 51° NW 19:43:13 10° NNW
Cosmos 1544 Rocket 3.9 19:39:26 10° NNW 19:43:43 62° W 19:46:04 26° S
Iridium 4 Rocket 4.4 19:41:26 10° N 19:44:03 29° NNE 19:44:03 29° NNE
Cosmos 2219 3.9 19:41:50 10° S 19:45:34 38° SSE 19:45:34 38° SSE
Cosmos 1603 4.3 19:43:14 10° NNW 19:48:05 39° NE 19:48:05 39° NE
CZ-4B R/B 4.4 19:47:52 47° SW 19:48:36 55° WSW 19:52:25 10° NNW
Cosmos 1975 Rocket 4.4 19:48:54 10° SW 19:52:57 38° WNW 19:57:00 10° N
ADEOS 3.4 19:53:50 71° NE 19:53:50 71° NE 19:58:53 10° NNW
Cosmos 2263 Rocket 2.1 19:51:24 10° SSW 19:57:06 86° ESE 19:58:28 54° NE
Meteor 2-12 Rocket 4.5 20:04:15 61° NE 20:04:15 61° NE 20:09:29 10° NNE
Cosmos 1634 Rocket 4.0 20:00:25 10° NNW 20:06:47 83° W 20:09:11 41° S
Feng Yun 1-1 Rocket 4.4 20:06:21 47° S 20:08:09 77° WSW 20:14:06 10° NNW
Terra 2.8 20:10:00 38° N 20:10:00 38° N 20:12:55 10° NNW
PAYLOAD B 4.3 20:08:30 58° S 20:09:35 77° WSW 20:15:14 10° NNW
Cosmos 972 Rocket 4.3 20:10:10 10° NNW 20:15:06 63° WSW 20:15:24 61° SW
Cosmos 1833 Rocket 4.4 20:12:00 10° NNW 20:15:10 21° NNE 20:15:10 21° NNE
Cosmos 44 Rocket 4.4 20:15:42 10° WSW 20:20:28 42° NW 20:21:13 39° NNW
Cosmos 2344 3.3 20:15:12 10° SW 20:22:50 89° SE 20:24:32 57° NE
Cosmos 2279 Rocket 3.9 20:21:29 10° NNW 20:27:37 83° W 20:27:37 83° W
SL-16 R/B 3.8 20:25:01 10° NW 20:29:52 30° WSW 20:32:45 19° SSW
Cosmos 2227 Rocket 3.3 20:25:04 10° WSW 20:30:25 42° NW 20:33:22 24° N
CZ-4C R/B 3.7 20:28:00 10° WNW 20:32:34 30° N 20:33:37 28° N
CZ-4 R/B 3.8 20:37:50 19° WNW 20:37:50 19° WNW 20:39:22 10° NW
Lacrosse 5 rocket 4.0 20:33:59 10° WNW 20:34:41 15° NW 20:34:41 15° NW
CZ-4B R/B 4.2 20:53:50 41° WNW 20:53:50 41° WNW 20:58:12 10° NNW
ATLAS 2AS CENTAUR R/B 3.5 20:53:47 10° NW 20:59:11 40° N 20:59:11 40° N
USA 267 3.7 21:05:09 56° NNW 21:05:09 56° NNW 21:10:51 10° WNW
Okean O Rocket 4.5 21:16:18 13° NNW 21:16:18 13° NNW 21:16:48 10° NNW
Cosmos 2082 Rocket 4.5 21:10:20 10° NNW 21:12:11 15° N 21:12:11 15° N
Cosmos 2263 Rocket 4.2 21:36:58 10° W 21:40:15 24° WNW 21:40:15 24° WNW
